| time (UTC) | temp F | wind direction | speed MPH | gust MPH | rain 1hr in | rain 24hr in | rain mn in | humidity % | barometer mb |
| 20260904215617 | 79 | 298 | 5.0 | 16.0 | 0.00 | 0.00 | 0.00 | 21 | 1013.0 |
| 20260904214627 | 79 | 176 | 6.0 | 11.0 | 0.00 | 0.00 | 0.00 | 22 | 1013.2 |
| 20260904213617 | 80 | 71 | 7.0 | 18.0 | 0.00 | 0.00 | 0.00 | 21 | 1013.3 |
| 20260904212630 | 79 | 191 | 4.0 | 13.0 | 0.00 | 0.00 | 0.00 | 21 | 1013.3 |
| 20260904211618 | 79 | 250 | 6.0 | 15.0 | 0.00 | 0.00 | 0.00 | 21 | 1013.3 |
| 20260904210647 | 78 | 83 | 8.0 | 18.0 | 0.00 | 0.00 | 0.00 | 21 | 1013.4 |
| 20260904205626 | 78 | 155 | 7.0 | 15.0 | 0.00 | 0.00 | 0.00 | 24 | 1013.4 |
| 20260904204621 | 78 | 139 | 6.0 | 16.0 | 0.00 | 0.00 | 0.00 | 22 | 1013.5 |
| 20260904203652 | 78 | 128 | 4.0 | 19.0 | 0.00 | 0.00 | 0.00 | 22 | 1013.4 |
| 20260904202620 | 78 | 71 | 7.0 | 12.0 | 0.00 | 0.00 | 0.00 | 21 | 1013.4 |
| 20260904201629 | 78 | 185 | 5.0 | 18.0 | 0.00 | 0.00 | 0.00 | 23 | 1013.4 |
| 20260904200622 | 78 | 309 | 7.0 | 16.0 | 0.00 | 0.00 | 0.00 | 22 | 1013.4 |
| 20260904195623 | 77 | 159 | 7.0 | 17.0 | 0.00 | 0.00 | 0.00 | 23 | 1013.5 |
| 20260904194614 | 77 | 355 | 5.0 | 12.0 | 0.00 | 0.00 | 0.00 | 22 | 1013.6 |
| 20260904193623 | 77 | 115 | 6.0 | 17.0 | 0.00 | 0.00 | 0.00 | 22 | 1013.6 |
| 20260904192616 | 76 | 49 | 11.0 | 19.0 | 0.00 | 0.00 | 0.00 | 21 | 1013.9 |
| 20260904191624 | 76 | 206 | 5.0 | 18.0 | 0.00 | 0.00 | 0.00 | 22 | 1013.9 |
| 20260904190613 | 76 | 182 | 6.0 | 16.0 | 0.00 | 0.00 | 0.00 | 23 | 1014.0 |
| 20260904185615 | 76 | 158 | 6.0 | 15.0 | 0.00 | 0.00 | 0.00 | 22 | 1013.9 |
| 20260904184628 | 76 | 131 | 6.0 | 14.0 | 0.00 | 0.00 | 0.00 | 22 | 1014.1 |
| 20260904183617 | 75 | 112 | 7.0 | 15.0 | 0.00 | 0.00 | 0.00 | 22 | 1014.3 |
| 20260904182626 | 75 | 167 | 4.0 | 13.0 | 0.00 | 0.00 | 0.00 | 24 | 1014.4 |
| 20260904181614 | 75 | 134 | 7.0 | 13.0 | 0.00 | 0.00 | 0.00 | 22 | 1014.5 |
| 20260904180614 | 75 | 199 | 11.0 | 17.0 | 0.00 | 0.00 | 0.00 | 21 | 1014.5 |
| 20260904175621 | 75 | 293 | 5.0 | 20.0 | 0.00 | 0.00 | 0.00 | 22 | 1014.6 |
| 20260904174630 | 74 | 96 | 12.0 | 28.0 | 0.00 | 0.00 | 0.00 | 21 | 1014.3 |
| 20260904173642 | 74 | 170 | 12.0 | 21.0 | 0.00 | 0.00 | 0.00 | 21 | 1014.6 |
| 20260904172631 | 74 | 113 | 5.0 | 21.0 | 0.00 | 0.00 | 0.00 | 22 | 1014.5 |
| 20260904171626 | 74 | 125 | 4.0 | 17.0 | 0.00 | 0.00 | 0.00 | 23 | 1014.6 |
| 20260904170637 | 73 | 99 | 9.0 | 19.0 | 0.00 | 0.00 | 0.00 | 21 | 1014.5 |
| 20260904165639 | 73 | 155 | 11.0 | 25.0 | 0.00 | 0.00 | 0.00 | 20 | 1014.5 |
| 20260904164630 | 73 | 114 | 11.0 | 23.0 | 0.00 | 0.00 | 0.00 | 20 | 1014.4 |
| 20260904163624 | 73 | 186 | 12.0 | 19.0 | 0.00 | 0.00 | 0.00 | 19 | 1014.3 |
| 20260904162635 | 72 | 298 | 6.0 | 12.0 | 0.00 | 0.00 | 0.00 | 21 | 1014.3 |
| 20260904161625 | 72 | 336 | 10.0 | 20.0 | 0.00 | 0.00 | 0.00 | 20 | 1014.4 |
| 20260904160615 | 72 | 184 | 4.0 | 9.0 | 0.00 | 0.00 | 0.00 | 22 | 1014.3 |
| 20260904155622 | 71 | 202 | 3.0 | 7.0 | 0.00 | 0.00 | 0.00 | 21 | 1014.4 |
| 20260904154614 | 70 | 163 | 6.0 | 13.0 | 0.00 | 0.00 | 0.00 | 21 | 1014.3 |
| 20260904142643 | 58 | 204 | 1.0 | 3.0 | 0.00 | 0.00 | 0.00 | 35 | 1014.1 |
| 20260904141613 | 56 | 204 | 2.0 | 4.0 | 0.00 | 0.00 | 0.00 | 33 | 1014.2 |
| 20260904140624 | 55 | 229 | 0.0 | 1.0 | 0.00 | 0.00 | 0.00 | 33 | 1014.1 |
| 20260904135627 | 55 | 229 | 1.0 | 4.0 | 0.00 | 0.00 | 0.00 | 34 | 1013.9 |
| 20260904134622 | 55 | 202 | 2.0 | 5.0 | 0.00 | 0.00 | 0.00 | 32 | 1013.9 |
| 20260904133613 | 54 | 277 | 0.0 | 2.0 | 0.00 | 0.00 | 0.00 | 34 | 1013.8 |
| 20260904132625 | 54 | 277 | 0.0 | 4.0 | 0.00 | 0.00 | 0.00 | 34 | 1013.7 |
| 20260904131617 | 55 | 276 | 2.0 | 6.0 | 0.00 | 0.00 | 0.00 | 34 | 1013.4 |
| 20260904130612 | 57 | 286 | 1.0 | 5.0 | 0.00 | 0.00 | 0.00 | 30 | 1013.2 |
| 20260904125615 | 58 | 136 | 3.0 | 9.0 | 0.00 | 0.00 | 0.00 | 27 | 1013.0 |
| 20260904124626 | 59 | 108 | 1.0 | 6.0 | 0.00 | 0.00 | 0.00 | 27 | 1012.9 |
| 20260904123621 | 59 | 186 | 4.0 | 6.0 | 0.00 | 0.00 | 0.00 | 27 | 1012.8 |
| 20260904122613 | 58 | 189 | 4.0 | 6.0 | 0.00 | 0.00 | 0.00 | 28 | 1012.7 |
| 20260904121623 | 57 | 246 | 0.0 | 0.0 | 0.00 | 0.00 | 0.00 | 29 | 1012.5 |
| 20260904120616 | 56 | 281 | 0.0 | 0.0 | 0.00 | 0.00 | 0.00 | 30 | 1012.4 |
| 20260904115623 | 56 | 281 | 0.0 | 0.0 | 0.00 | 0.00 | 0.00 | 32 | 1012.4 |
| 20260904114615 | 56 | 281 | 0.0 | 0.0 | 0.00 | 0.00 | 0.00 | 31 | 1012.4 |
| 20260904113627 | 56 | 281 | 0.0 | 4.0 | 0.00 | 0.00 | 0.00 | 32 | 1012.3 |
| 20260904112618 | 56 | 281 | 0.0 | 4.0 | 0.00 | 0.00 | 0.00 | 34 | 1012.4 |
| 20260904111612 | 56 | 281 | 2.0 | 4.0 | 0.00 | 0.00 | 0.00 | 32 | 1012.3 |
| 20260904110621 | 56 | 281 | 0.0 | 4.0 | 0.00 | 0.00 | 0.00 | 32 | 1012.3 |
| 20260904105623 | 57 | 281 | 2.0 | 4.0 | 0.00 | 0.00 | 0.00 | 33 | 1012.2 |
| 20260904104614 | 57 | 279 | 3.0 | 8.0 | 0.00 | 0.00 | 0.00 | 32 | 1012.0 |
| 20260904103647 | 59 | 271 | 2.0 | 5.0 | 0.00 | 0.00 | 0.00 | 31 | 1011.9 |
| 20260904102616 | 63 | 317 | 2.0 | 9.0 | 0.00 | 0.00 | 0.00 | 27 | 1011.9 |
| 20260904101625 | 66 | 160 | 5.0 | 11.0 | 0.00 | 0.00 | 0.00 | 19 | 1011.7 |
| 20260904100615 | 66 | 139 | 6.0 | 10.0 | 0.00 | 0.00 | 0.00 | 19 | 1011.6 |
| 20260904095623 | 66 | 138 | 6.0 | 10.0 | 0.00 | 0.00 | 0.00 | 20 | 1011.6 |
| 20260904094614 | 66 | 116 | 6.0 | 15.0 | 0.00 | 0.00 | 0.00 | 21 | 1011.4 |
| 20260904093623 | 66 | 159 | 8.0 | 13.0 | 0.00 | 0.00 | 0.00 | 20 | 1011.3 |
| 20260904092612 | 66 | 148 | 8.0 | 15.0 | 0.00 | 0.00 | 0.00 | 21 | 1011.1 |
| 20260904091627 | 67 | 98 | 12.0 | 16.0 | 0.00 | 0.00 | 0.00 | 20 | 1011.1 |
| 20260904090639 | 66 | 119 | 9.0 | 14.0 | 0.00 | 0.00 | 0.00 | 20 | 1011.1 |
| 20260904085641 | 66 | 153 | 8.0 | 12.0 | 0.00 | 0.00 | 0.00 | 21 | 1011.1 |
| 20260904084630 | 66 | 157 | 9.0 | 14.0 | 0.00 | 0.00 | 0.00 | 21 | 1011.0 |
| 20260904083624 | 66 | 117 | 8.0 | 16.0 | 0.00 | 0.00 | 0.00 | 22 | 1011.0 |
| 20260904082615 | 66 | 94 | 9.0 | 17.0 | 0.00 | 0.00 | 0.00 | 22 | 1011.0 |
| 20260904081626 | 66 | 76 | 12.0 | 19.0 | 0.00 | 0.00 | 0.00 | 22 | 1011.0 |
| 20260904080615 | 67 | 113 | 10.0 | 16.0 | 0.00 | 0.00 | 0.00 | 22 | 1010.9 |
| 20260904075640 | 67 | 103 | 9.0 | 19.0 | 0.00 | 0.00 | 0.00 | 23 | 1010.9 |
| 20260904074629 | 67 | 143 | 9.0 | 16.0 | 0.00 | 0.00 | 0.00 | 23 | 1011.1 |
| 20260904073619 | 67 | 117 | 10.0 | 19.0 | 0.00 | 0.00 | 0.00 | 22 | 1011.2 |
| 20260904072629 | 67 | 120 | 8.0 | 14.0 | 0.00 | 0.00 | 0.00 | 23 | 1011.2 |
| 20260904071624 | 67 | 104 | 11.0 | 15.0 | 0.00 | 0.00 | 0.00 | 23 | 1011.3 |
| 20260904070614 | 66 | 132 | 8.0 | 14.0 | 0.00 | 0.00 | 0.00 | 23 | 1011.3 |
| 20260904065616 | 66 | 95 | 8.0 | 13.0 | 0.00 | 0.00 | 0.00 | 24 | 1011.3 |
| 20260904064627 | 65 | 123 | 8.0 | 14.0 | 0.00 | 0.00 | 0.00 | 25 | 1011.2 |
| 20260904063620 | 60 | 153 | 4.0 | 8.0 | 0.00 | 0.00 | 0.00 | 30 | 1011.1 |
| 20260904062650 | 59 | 311 | 1.0 | 4.0 | 0.00 | 0.00 | 0.00 | 39 | 1011.2 |
| 20260904061619 | 59 | 312 | 0.0 | 0.0 | 0.00 | 0.00 | 0.00 | 39 | 1011.3 |
| 20260904060618 | 59 | 312 | 0.0 | 0.0 | 0.00 | 0.00 | 0.00 | 38 | 1011.3 |
| 20260904055621 | 58 | 312 | 0.0 | 4.0 | 0.00 | 0.00 | 0.00 | 37 | 1011.3 |
| 20260904054617 | 59 | 312 | 2.0 | 4.0 | 0.00 | 0.00 | 0.00 | 36 | 1011.3 |
| 20260904053648 | 59 | 313 | 1.0 | 4.0 | 0.00 | 0.00 | 0.00 | 35 | 1011.4 |
| 20260904052619 | 59 | 314 | 2.0 | 6.0 | 0.00 | 0.00 | 0.00 | 35 | 1011.3 |
| 20260904051630 | 62 | 309 | 3.0 | 6.0 | 0.00 | 0.00 | 0.00 | 34 | 1011.3 |
| 20260904050625 | 64 | 150 | 5.0 | 13.0 | 0.00 | 0.00 | 0.00 | 26 | 1011.3 |
| 20260904045629 | 58 | 321 | 1.0 | 5.0 | 0.00 | 0.00 | 0.00 | 40 | 1011.4 |
| 20260904044620 | 59 | 318 | 3.0 | 5.0 | 0.00 | 0.00 | 0.00 | 38 | 1011.5 |
| 20260904043614 | 60 | 327 | 0.0 | 0.0 | 0.00 | 0.00 | 0.00 | 36 | 1011.6 |
| 20260904042626 | 61 | 327 | 3.0 | 6.0 | 0.00 | 0.00 | 0.00 | 34 | 1011.6 |
| 20260904041617 | 63 | 300 | 1.0 | 5.0 | 0.00 | 0.00 | 0.00 | 32 | 1011.6 |
| 20260904040648 | 65 | 166 | 2.0 | 8.0 | 0.00 | 0.00 | 0.00 | 29 | 1011.6 |
| 20260904035614 | 64 | 140 | 4.0 | 12.0 | 0.00 | 0.00 | 0.00 | 29 | 1011.6 |
| 20260904034625 | 63 | 74 | 8.0 | 12.0 | 0.00 | 0.00 | 0.00 | 29 | 1011.4 |
| 20260904033617 | 63 | 79 | 9.0 | 12.0 | 0.00 | 0.00 | 0.00 | 29 | 1011.4 |
| 20260904032649 | 64 | 128 | 6.0 | 11.0 | 0.00 | 0.00 | 0.00 | 29 | 1011.5 |
| 20260904031623 | 64 | 113 | 6.0 | 11.0 | 0.00 | 0.00 | 0.00 | 29 | 1011.6 |
| 20260904030614 | 64 | 111 | 7.0 | 9.0 | 0.00 | 0.00 | 0.00 | 28 | 1011.6 |
| 20260904025617 | 65 | 130 | 5.0 | 9.0 | 0.00 | 0.00 | 0.00 | 28 | 1011.6 |
| 20260904024629 | 66 | 121 | 5.0 | 11.0 | 0.00 | 0.00 | 0.00 | 27 | 1011.6 |
| 20260904023623 | 67 | 111 | 7.0 | 10.0 | 0.00 | 0.00 | 0.00 | 26 | 1011.3 |
| 20260904022614 | 68 | 114 | 6.0 | 10.0 | 0.00 | 0.00 | 0.00 | 26 | 1011.4 |
| 20260904021623 | 68 | 122 | 6.0 | 8.0 | 0.00 | 0.00 | 0.00 | 26 | 1011.4 |
| 20260904020635 | 69 | 119 | 4.0 | 7.0 | 0.00 | 0.00 | 0.00 | 26 | 1011.4 |
| 20260904015620 | 71 | 173 | 4.0 | 5.0 | 0.00 | 0.00 | 0.00 | 25 | 1011.4 |
| 20260904014631 | 72 | 196 | 0.0 | 2.0 | 0.00 | 0.00 | 0.00 | 24 | 1011.5 |
| 20260904013619 | 73 | 196 | 0.0 | 3.0 | 0.00 | 0.00 | 0.00 | 22 | 1011.4 |
| 20260904012629 | 74 | 198 | 1.0 | 7.0 | 0.00 | 0.00 | 0.00 | 22 | 1011.4 |
| 20260904011622 | 74 | 202 | 3.0 | 7.0 | 0.00 | 0.00 | 0.00 | 20 | 1011.3 |
| 20260904010633 | 75 | 141 | 4.0 | 7.0 | 0.00 | 0.00 | 0.00 | 19 | 1011.3 |
| 20260904005636 | 76 | 313 | 3.0 | 9.0 | 0.00 | 0.00 | 0.00 | 20 | 1011.2 |
| 20260904004624 | 76 | 340 | 3.0 | 8.0 | 0.00 | 0.00 | 0.00 | 19 | 1011.3 |
| 20260904003618 | 76 | 85 | 5.0 | 9.0 | 0.00 | 0.00 | 0.00 | 18 | 1011.3 |
| 20260904002615 | 76 | 294 | 2.0 | 9.0 | 0.00 | 0.00 | 0.00 | 19 | 1011.3 |
| 20260904001645 | 76 | 159 | 7.0 | 15.0 | 0.00 | 0.00 | 0.00 | 17 | 1011.3 |
| 20260904000614 | 77 | 125 | 5.0 | 10.0 | 0.00 | 0.00 | 0.00 | 18 | 1011.4 |
| 20260903235615 | 77 | 167 | 4.0 | 11.0 | 0.00 | 0.00 | 0.00 | 18 | 1011.4 |
| 20260903234627 | 76 | 158 | 5.0 | 14.0 | 0.00 | 0.00 | 0.00 | 19 | 1011.4 |
| 20260903233617 | 76 | 100 | 7.0 | 15.0 | 0.00 | 0.00 | 0.00 | 18 | 1011.6 |
| 20260903232628 | 76 | 150 | 7.0 | 11.0 | 0.00 | 0.00 | 0.00 | 19 | 1011.5 |
| 20260903231617 | 76 | 295 | 3.0 | 15.0 | 0.00 | 0.00 | 0.00 | 20 | 1011.6 |
| 20260903230631 | 77 | 258 | 2.0 | 7.0 | 0.00 | 0.00 | 0.00 | 18 | 1011.7 |
| 20260903225615 | 77 | 156 | 5.0 | 10.0 | 0.00 | 0.00 | 0.00 | 19 | 1011.8 |
| 20260903224626 | 77 | 126 | 3.0 | 14.0 | 0.00 | 0.00 | 0.00 | 17 | 1011.9 |
| 20260903223617 | 77 | 165 | 5.0 | 13.0 | 0.00 | 0.00 | 0.00 | 18 | 1012.1 |
| 20260903222613 | 77 | 172 | 5.0 | 16.0 | 0.00 | 0.00 | 0.00 | 18 | 1012.0 |
| 20260903221624 | 76 | 263 | 4.0 | 11.0 | 0.00 | 0.00 | 0.00 | 19 | 1012.2 |
| 20260903220615 | 76 | 147 | 6.0 | 8.0 | 0.00 | 0.00 | 0.00 | 18 | 1012.2 |